Tracking 18840 objects as of 19-November-2017
HD Live streaming from Space Station
objects crossing your sky now

METEOR 2-21

Track METEOR 2-21 now!
10-day predictions
METEOR 2-21 is classified as:


NORAD ID: 22782
Int'l Code: 1993-055A
Perigee: 941.1 km
Apogee: 974.0 km
Inclination: 82.5 °
Period: 104.1 minutes
Semi major axis: 7328 km
RCS: 4.7976 m2 (large)
Launch date: August 31, 1993
Source: Commonwealth of Independent States (former USSR) (CIS)
Launch site: PLESETSK MISSILE AND SPACE COMPLEX (PKMTR)
aabbcc
Your satellite tracking list
Your tracking list is empty




NASA's NSSDC Master Catalog

Two Line Element Set (TLE):
1 22782U 93055A   17322.97305557 +.00000066 +00000-0 +45845-4 0  9991
2 22782 082.5495 260.7366 0022492 000.4449 066.9712 13.83804996222835
Source of the keplerian elements: AFSPC